COSMOS 2463 [+]

Last updated on Wed Jun 28 2023 00:03:31 GMT+0000 (Coordinated Universal Time)

1 36519U 10017A 23178.15063171 .00000074 00000+0 65322-4 0 9990 2 36519 82.9609 327.5822 0034814 263.1363 270.2558 13.71511967659148

Satellite not in orbit

COSMOS 2463 [+]